Regional Weather Roundup
Issued by NWS

Home | Current Version | Previous Version | Graphics & Text | Print | Product List | Glossary On
Versions: 1 2 3 4 5 6 7 8 9 10 11 12 13 14 15 16 17 18 19 20 21 22 23 24 25 26 27 28 29 30 31 32 33 34 35 36 37 38 39 40 41 42 43 44 45 46 47 48 49 50
000
ASUS45 KBOI 231610
RWRID
WEATHER ROUNDUP FOR IDAHO
NATIONAL WEATHER SERVICE BOISE ID
1000 AM MDT TUE SEP 23 2014

NOTE: "FAIR" INDICATES FEW OR NO CLOUDS BELOW 12000 FEET
WITH NO SIGNIFICANT WEATHER AND/OR OBSTRUCTIONS TO VISIBILITY

IDZ012-014-231700-
SOUTHWEST IDAHO


CITY           SKY/WX    TMP DP  RH WIND       PRES   REMARKS
BOISE          PTSUNNY   70  51  51 SE10      30.02R
CALDWELL       PTSUNNY   63  48  59 S9        30.04R
MOUNTAIN HOME  PTSUNNY   64  53  68 E22       30.05S
$$

IDZ016-017-231700-
SOUTHCENTRAL IDAHO


CITY           SKY/WX    TMP DP  RH WIND       PRES   REMARKS
BURLEY         MOSUNNY   59  51  75 E5        30.14R
JEROME         CLOUDY    60  52  74 NE14      30.12F
TWIN FALLS     CLOUDY    66  52  60 CALM      30.12S
$$

IDZ019>023-231700-
SOUTHEAST IDAHO


CITY           SKY/WX    TMP DP  RH WIND       PRES   REMARKS
IDAHO FALLS    MOSUNNY   60  51  72 N6        30.21R
POCATELLO      SUNNY     61  53  75 N5        30.20R
REXBURG        SUNNY     58  51  78 CALM      30.21S
$$

IDZ006-010-011-018-031-032-231700-
CENTRAL IDAHO MOUNTAINS


CITY           SKY/WX    TMP DP  RH WIND       PRES   REMARKS
MCCALL         CLOUDY    56  49  77 CALM      30.11S
HAILEY         MOSUNNY   55  46  71 NW7       30.22F
STANLEY          N/A     42  41  96 CALM      30.26S
SALMON         MOSUNNY   55  52  88 CALM      30.14S
CHALLIS          N/A    N/A N/A N/A MISG      30.19S
$$

IDZ002-004-006-007-026-231700-
NORTHERN IDAHO


CITY           SKY/WX    TMP DP  RH WIND       PRES   REMARKS
LEWISTON       PTSUNNY   66  59  78 CALM      29.93R
LOWELL           N/A     61  53  75 CALM      29.99F
COEUR D`ALENE  MOSUNNY   64  57  77 NE5       29.96R
MULLAN PASS    PTSUNNY   53  46  77 VRB7      30.12S
$$


USA.gov is the U.S. government's official web portal to all federal, state and local government web resources and services.